Regional Weather Roundup
Issued by NWS

Home | Current Version | Previous Version | Graphics & Text | Print | Product List | Glossary Off
Versions: 1 2 3 4 5 6 7 8 9 10 11 12 13 14 15 16 17 18 19 20 21 22 23 24 25 26 27 28 29 30 31 32 33 34 35 36 37 38 39 40 41 42 43 44 45 46 47 48 49 50

000
ASUS43 KTOP 060059
RWRKS

WEATHER ROUNDUP FOR KANSAS
NATIONAL WEATHER SERVICE GOODLAND KS
700 PM CST THU MAR 05 2015

NOTE:  "FAIR" INDICATES FEW OR NO CLOUDS BELOW 12,000 FEET WITH NO
SIGNIFICANT WEATHER AND/OR OBSTRUCTIONS TO VISIBILITY.

KSZ001>006-013>018-027>032-041>047-060200-
NORTHWEST KANSAS

CITY           SKY/WX    TMP DP  RH WIND       PRES   REMARKS
GOODLAND       MOCLDY    39  15  37 SW12      30.26R WCI  32
HAYS           MOCLDY    37   5  25 S8        30.31S
HILL CITY      MOCLDY    40   8  26 S7        30.27S
RUSSELL        MOCLDY    35   6  29 S12       30.31F WCI  27
$$

KSZ061>065-074>080-084>089-060200-
SOUTHWEST KANSAS

CITY           SKY/WX    TMP DP  RH WIND       PRES   REMARKS
DODGE CITY     PTCLDY    35  17  47 S7        30.32S
ELKHART          N/A     38  13  36 S7          N/A
GARDEN CITY    PTCLDY    36  13  38 S5        30.30R
GREAT BEND     MOCLDY    39   9  28 SW3       30.35R
LIBERAL        CLEAR     36  18  48 S9        30.33F
$$

KSZ066>073-081>083-090>101-060200-
SOUTHEAST KANSAS

CITY           SKY/WX    TMP DP  RH WIND       PRES   REMARKS
CHANUTE        CLEAR     31  16  54 SE7       30.48R
COFFEYVILLE    CLEAR     34  19  54 SE6       30.49S
HUTCHINSON     CLEAR     32  17  54 S6        30.38F
MEDICINE LODGE   N/A     38  17  42 SE8       30.38F
NEWTON         CLEAR     32  18  55 S7        30.41F
PARSONS        CLEAR     34  18  52 SE3       30.49S
WICHITA INTL   PTCLDY    38  12  34 S6        30.41S
WICHITA JABRA  CLEAR     36  11  35 S6        30.41S
WINFIELD       CLEAR     35  20  54 S8        30.46R
$$

KSZ007>012-019>026-033>040-048>060-102>105-060200-
NORTHEAST KANSAS

CITY           SKY/WX    TMP DP  RH WIND       PRES   REMARKS
CONCORDIA      PTCLDY    31   7  36 S8        30.35F
EMPORIA        CLEAR     28  18  66 E10       30.43S WCI  19
LAWRENCE       CLEAR     23  11  60 SE7       30.48F
MANHATTAN      CLEAR     31  10  41 CALM      30.42R
OLATHE IND     CLEAR     25  11  55 SE7       30.49S
OLATHE EXE     CLEAR     29   8  41 SE5       30.48S
SALINA         PTCLDY    35   5  28 S3        30.39R
TOPEKA BILLARD CLEAR     29  11  47 SE7       30.47S
TOPEKA FORBES  CLEAR     29  12  49 SE8       30.45S
$$



USA.gov is the U.S. government's official web portal to all federal, state and local government web resources and services.